Hourly Data Report for October 26, 2013

All times are specified in Local Standard Time (LST). Add 1 hour to adjust for Daylight Saving Time where and when it is observed.

PENTICTON A
BRITISH COLUMBIA

49°27'45.000" N
119°36'08.000" W
344.40 m
1126146
71889
YYF

Download Data

Hourly Data (October 2013)
Hourly Data Report for October 26, 2013
Temp Definition
°C
Dew Point Temp Definition
°C
Rel Hum Definition
%
Wind Dir Definition
10's deg

Wind Spd Definition
km/h
Visibility Definition
km
Stn Press Definition
kPa
Hmdx Definition


Wind Chill Definition


Weather Definition


TIME
00:00 Legend Double Dagger 7.3 4.8 84 32 13 19.3 98.68     LegendNANA
01:00 Legend Double Dagger 7.3 4.6 83 32 8 19.3 98.67     Cloudy
02:00 Legend Double Dagger 7.0 4.7 85 34 10 19.3 98.67     LegendNANA
03:00 Legend Double Dagger 7.1 4.4 83 34 9 19.3 98.66     LegendNANA
04:00 Legend Double Dagger 6.9 4.2 83 34 9 24.1 98.72     Cloudy
05:00 Legend Double Dagger 6.9 4.1 82 35 9 19.3 98.75     LegendNANA
06:00 Legend Double Dagger 7.0 4.3 83 30 7 19.3 98.70     LegendNANA
07:00 Legend Double Dagger 6.7 3.9 82 32 10 19.3 98.75     Cloudy
08:00 Legend Double Dagger 7.0 4.0 81 27 2 24.1 98.71     LegendNANA
09:00 Legend Double Dagger 7.2 4.4 82 34 8 24.1 98.72     LegendNANA
10:00 Legend Double Dagger 7.4 4.5 82 23 3 19.3 98.67     Cloudy
11:00 Legend Double Dagger 7.6 4.7 82 35 7 24.1 98.65     LegendNANA
12:00 Legend Double Dagger 7.8 4.6 80 29 5 19.3 98.58     LegendNANA
13:00 Legend Double Dagger 8.2 4.4 77 1 13 24.1 98.55     Cloudy
14:00 Legend Double Dagger 8.1 4.9 80 1 9 24.1 98.46     LegendNANA
15:00 Legend Double Dagger 8.0 4.6 79 15 2 24.1 98.36     LegendNANA
16:00 Legend Double Dagger 7.8 4.6 80 29 4 24.1 98.25     Mostly Cloudy
17:00 Legend Double Dagger 7.6 4.9 83 31 5 24.1 98.17     LegendNANA
18:00 Legend Double Dagger 7.6 4.7 82 33 8 24.1 98.12     LegendNANA
19:00 Legend Double Dagger 7.6 4.7 82 27 2 24.1 98.05     Cloudy
20:00 Legend Double Dagger 7.5 5.0 84 20 5 24.1 97.89     LegendNANA
21:00 Legend Double Dagger 7.3 5.0 85 34 9 24.1 97.93     LegendNANA
22:00 Legend Double Dagger 7.3 4.8 84 13 2 24.1 97.86     Cloudy
23:00 Legend Double Dagger 6.9 5.4 90 35 10 24.1 97.91     Rain

Notes on Data Quality.

Legend

  • E = Estimated
  • M = Missing
  • NA = Not Available
  • ‡ = Partner data that is not subject to review by the National Climate Archives
Date modified: